Location: Aucun
(42.9667°N, 0.1667°W)
Time: 23:58:51
(UTC+00:00)

Cosmos 2233 Rocket - Pass Details

Date: 17 February 2020
Orbit: 954 x 990 km, 82.9° (Epoch: 09 April)

Event Time Altitude Azimuth Distance (km) Brightness Sun altitude
Rises 06:16:16 0° 353° (N) 3,681 6.9 -8.0°
Reaches altitude 10° 06:18:48 10° 356° (N) 2,735 6.2 -7.5°
Maximum altitude 06:25:04 72° 81° (E) 1,030 4.4 -6.4°
Drops below altitude 10° 06:31:21 10° 166° (SSE) 2,737 6.7 -5.3°
Sets 06:33:52 0° 168° (SSE) 3,684 7.4 -4.8°
